This demonstration page uses our WeatherBlox Daily Observations layout. Learn more.

Left ArrowRight Arrow

38.89511, -77.03637

Hourly Observations for July 2, 2015

Temp ( °F °C ) Dew Point ( °F °C ) Humidity (%) Winds ( mph kmh ) Pressure ( in mb ) Visibility ( mi km ) Precip ( " mm )
12:52 am 00:52 Cloudy with Light Rain 75 23.9 69 20.6 82 82 N N/A 29.91 1013 9 14 N/A
1:52 am 01:52 Partly Cloudy 75 23.9 70 21.1 84 84 N N/A 29.90 1013 8 13 N/A
2:52 am 02:52 Partly Cloudy with Mist and Fog 74 23.3 70 21.1 88 88 N N/A 29.88 1012 6 10 N/A
3:25 am 03:25 Mostly Cloudy 73 23 70 21 89 89 S 3 6 29.88 1012 7 11 N/A
3:52 am 03:52 Partly Cloudy 74 23.3 70 21.1 88 88 N N/A 29.88 1012 7 11 N/A
4:52 am 04:52 Mostly Cloudy with Mist and Fog 73 22.8 70 21.1 90 90 N 3 6 29.87 1012 6 10 N/A
5:52 am 05:52 Cloudy 74 23.3 69 20.6 85 85 NE 5 7 29.88 1012 8 13 N/A
6:13 am 06:13 Cloudy with Light Rain 73 23 68 20 83 83 NNE 7 11 29.88 1012 8 13 N/A
6:38 am 06:38 Cloudy with Light Rain 73 23 66 19 78 78 W 12 19 29.91 1013 6 10 N/A
6:52 am 06:52 Cloudy with Light Rain 71 21.7 65 18.3 81 81 NNW 14 22 29.90 1012 7 11 0.02 0.51
7:19 am 07:19 Mostly Cloudy 72 22 64 18 78 78 N 8 13 29.91 1013 8 13 N/A
7:52 am 07:52 Cloudy 73 22.8 64 17.8 74 74 N 7 11 29.91 1013 9 14 N/A
8:52 am 08:52 Cloudy 73 22.8 64 17.8 74 74 N 10 17 29.91 1013 9 14 N/A
9:52 am 09:52 Cloudy 75 23.9 64 17.8 69 69 NNE 12 19 29.91 1013 10 16 N/A
10:52 am 10:52 Cloudy 74 23.3 63 17.2 69 69 N 8 13 29.91 1013 10 16 N/A
11:03 am 11:03 Cloudy with Light Rain 73 23 64 18 74 74 NNE 7 11 29.91 1013 7 11 N/A
11:49 am 11:49 Cloudy 73 23 64 18 74 74 NNE 8 13 29.91 1013 8 13 N/A
11:52 am 11:52 Cloudy 74 23.3 65 18.3 74 74 NNE 7 11 29.90 1013 8 13 N/A
12:52 pm 12:52 Cloudy 76 24.4 65 18.3 69 69 N N/A 29.90 1013 9 14 N/A
1:52 pm 13:52 Cloudy 77 25 65 18.3 66 66 NNE 3 6 29.90 1013 10 16 N/A
2:52 pm 14:52 Cloudy 77 25 65 18.3 66 66 ENE 3 6 29.90 1013 9 14 N/A
3:37 pm 15:37 Cloudy 77 25 66 19 69 69 N N/A 29.91 1013 8 13 N/A
3:52 pm 15:52 Cloudy 77 25 67 19.4 71 71 NW 7 11 29.90 1013 9 14 N/A
4:01 pm 16:01 Cloudy 77 25 66 19 69 69 NNW 7 11 29.91 1013 9 14 N/A
4:32 pm 16:32 Cloudy 77 25 66 19 69 69 NNW 7 11 29.91 1013 10 16 N/A
4:52 pm 16:52 Cloudy 77 25 66 18.9 69 69 NNW 5 7 29.90 1012 10 16 N/A
5:52 pm 17:52 Cloudy 77 25 66 18.9 69 69 N N/A 29.88 1012 10 16 N/A
6:52 pm 18:52 Cloudy 76 24.4 66 18.9 72 72 N 3 6 29.88 1012 10 16 N/A
7:52 pm 19:52 Cloudy 75 23.9 67 19.4 76 76 S 6 9 29.88 1012 7 11 N/A
8:52 pm 20:52 Mostly Cloudy with Haze 73 22.8 67 19.4 81 81 S 5 7 29.89 1012 6 10 N/A
9:52 pm 21:52 Mostly Cloudy 72 22.2 66 18.9 82 82 N N/A 29.91 1013 7 11 N/A
10:52 pm 22:52 Partly Cloudy 73 22.8 67 19.4 81 81 N 3 6 29.90 1013 9 14 N/A
11:52 pm 23:52 Mostly Clear 73 22.8 65 18.3 76 76 N N/A 29.92 1013 9 14 N/A

Powered by AerisWeather